Nampa, ID

5:13 AM MDT on September 28, 2016 (GMT -0600)
Nampa

Weather History for KMAN - February, 2012

Change the Weather History Date:

Sunday, February 19, 2012

  Actual Average (KBOI) Record (KBOI)
Temperature  
Mean Temperature 29 °F 38 °F  
Max Temperature 41 °F 46 °F 67 °F (1995)
Min Temperature 17 °F 29 °F -5 °F (1882)
Degree Days  
Heating Degree Days 36 27  
Month to date heating degree days 564  
Since 1 July heating degree days 3925  
Cooling Degree Days 0 0  
Month to date cooling degree days 0  
Year to date cooling degree days 0  
Moisture  
Dew Point 19 °F    
Average Humidity 67    
Maximum Humidity 93    
Minimum Humidity 39    
Precipitation  
Precipitation 0.00 in 0.03 in 0.76 in (1986)
Month to date precipitation 0.65  
Year to date precipitation 1.89  
Snow  
Snow 0.00 in 0.00 in 3.80 in (1910)
Month to date snowfall 2.1  
Since 1 July snowfall 16.9  
Snow Depth -    
Sea Level Pressure  
Sea Level Pressure 30.03 in    
Wind  
Wind Speed 3 mph (East)    
Max Wind Speed 9 mph    
Max Gust Speed -    
Visibility 10 miles    
Events      
T = Trace of Precipitation, MM = Missing Value Source: NWS Daily Summary

Daily Weather History Graph

Daily Weather History Graph

Search for Another Location

Airport or City:

Trip Planner

Search our weather history database for the weather conditions in past years. The results will help you decide how hot, cold, wet, or windy it might be!

Date:

Astronomy

Feb. 19, 2012 Rise Set
Actual Time 7:39 AM MST 6:21 PM MST
Civil Twilight 7:10 AM MST 6:50 PM MST
Nautical Twilight 6:36 AM MST 7:23 PM MST
Astronomical Twilight 6:03 AM MST 7:57 PM MST
Moon 6:05 AM MST (2/19) 4:25 PM MST (2/19)
Length of Visible Light 11h 40m
Length of Day
10h 42m
Waning Crescent, 5% of the Moon is Illuminated
Feb 19
Waning Crescent
Feb 21
New
Feb 29
First Quarter
Mar 8
Full
Mar 14
Last Quarter

Hourly Weather History & Observations

Time (MST) Temp. Windchill Dew Point Humidity Pressure Visibility Wind Dir Wind Speed Gust Speed Precip Events Conditions
12:15 AM 32.0 °F 28.7 °F 17.6 °F 55% 30.05 in 10.0 mi West 3.5 mph - N/A   Partly Cloudy
12:35 AM 28.4 °F 24.6 °F 17.6 °F 64% 30.06 in 10.0 mi ENE 3.5 mph - N/A   Clear
12:55 AM 28.4 °F 24.6 °F 19.4 °F 69% 30.06 in 10.0 mi NW 3.5 mph - N/A   Clear
1:15 AM 26.6 °F - 19.4 °F 74% 30.07 in 10.0 mi Calm Calm - N/A   Clear
1:35 AM 30.2 °F 25.4 °F 19.4 °F 64% 30.06 in 10.0 mi NNW 4.6 mph - N/A   Mostly Cloudy
1:55 AM 26.6 °F - 19.4 °F 74% 30.06 in 10.0 mi Calm Calm - N/A   Mostly Cloudy
2:15 AM 23.0 °F - 19.4 °F 86% 30.05 in 10.0 mi Calm Calm - N/A   Partly Cloudy
2:35 AM 23.0 °F 18.4 °F 19.4 °F 86% 30.05 in 10.0 mi SE 3.5 mph - N/A   Clear
2:55 AM 24.8 °F 20.5 °F 19.4 °F 80% 30.05 in 10.0 mi East 3.5 mph - N/A   Clear
3:15 AM 24.8 °F - 17.6 °F 74% 30.04 in 10.0 mi Calm Calm - N/A   Clear
3:35 AM 23.0 °F 18.4 °F 17.6 °F 80% 30.04 in 10.0 mi SE 3.5 mph - N/A   Clear
3:55 AM 23.0 °F 18.4 °F 19.4 °F 86% 30.04 in 10.0 mi ESE 3.5 mph - N/A   Clear
4:15 AM 23.0 °F - 19.4 °F 86% 30.04 in 10.0 mi Calm Calm - N/A   Clear
4:35 AM 23.0 °F - 19.4 °F 86% 30.04 in 10.0 mi Calm Calm - N/A   Clear
4:55 AM 19.4 °F - 17.6 °F 93% 30.05 in 10.0 mi Calm Calm - N/A   Clear
5:15 AM 19.4 °F - 17.6 °F 93% 30.05 in 10.0 mi Calm Calm - N/A   Clear
5:55 AM 19.4 °F - 17.6 °F 93% 30.05 in 10.0 mi Calm Calm - N/A   Clear
6:15 AM 19.4 °F 14.3 °F 17.6 °F 93% 30.05 in 10.0 mi East 3.5 mph - N/A   Clear
6:35 AM 23.0 °F 18.4 °F 17.6 °F 80% 30.05 in 10.0 mi SSW 3.5 mph - N/A   Clear
6:55 AM 19.4 °F - 15.8 °F 86% 30.05 in 10.0 mi Calm Calm - N/A   Clear
7:15 AM 19.4 °F - 17.6 °F 93% 30.06 in 10.0 mi Calm Calm - N/A   Clear
7:35 AM 17.6 °F - 15.8 °F 93% 30.06 in 10.0 mi Calm Calm - N/A   Clear
7:55 AM 17.6 °F - 15.8 °F 93% 30.06 in 10.0 mi Calm Calm - N/A   Clear
8:15 AM 19.4 °F - 15.8 °F 86% 30.07 in 10.0 mi Calm Calm - N/A   Clear
8:35 AM 23.0 °F - 19.4 °F 86% 30.07 in 10.0 mi Calm Calm - N/A   Clear
8:55 AM 24.8 °F 20.5 °F 19.4 °F 80% 30.07 in 10.0 mi SSE 3.5 mph - N/A   Clear
9:15 AM 26.6 °F - 23.0 °F 86% 30.06 in 10.0 mi Calm Calm - N/A   Clear
9:35 AM 28.4 °F - 24.8 °F 86% 30.06 in 10.0 mi Calm Calm - N/A   Clear
11:15 AM 37.4 °F 32.8 °F 21.2 °F 52% 30.05 in 10.0 mi North 5.8 mph - N/A   Partly Cloudy
11:55 AM 37.4 °F 31.4 °F 19.4 °F 48% 30.05 in 10.0 mi NW 8.1 mph - N/A   Overcast
12:15 PM 39.2 °F 34.2 °F 17.6 °F 42% 30.05 in 10.0 mi NW 6.9 mph - N/A   Overcast
12:35 PM 37.4 °F 33.8 °F 17.6 °F 45% 30.05 in 10.0 mi NW 4.6 mph - N/A   Overcast
12:55 PM 37.4 °F 32.1 °F 19.4 °F 48% 30.04 in 10.0 mi NNE 6.9 mph - N/A   Overcast
1:15 PM 39.2 °F 34.2 °F 19.4 °F 45% 30.03 in 10.0 mi NNW 6.9 mph - N/A   Overcast
1:35 PM 39.2 °F 37.0 °F 19.4 °F 45% 30.02 in 10.0 mi NW 3.5 mph - N/A   Overcast
2:15 PM 39.2 °F 37.0 °F 17.6 °F 42% 30.02 in 10.0 mi North 3.5 mph - N/A   Overcast
2:35 PM 39.2 °F 35.0 °F 17.6 °F 42% 30.02 in 10.0 mi North 5.8 mph - N/A   Overcast
2:55 PM 39.2 °F 35.9 °F 19.4 °F 45% 30.02 in 10.0 mi NNW 4.6 mph - N/A   Overcast
3:15 PM 39.2 °F 35.0 °F 19.4 °F 45% 30.01 in 10.0 mi NE 5.8 mph - N/A   Overcast
3:35 PM 41.0 °F 39.0 °F 19.4 °F 42% 30.01 in 10.0 mi South 3.5 mph - N/A   Overcast
3:55 PM 39.2 °F - 17.6 °F 42% 30.00 in 10.0 mi Calm Calm - N/A   Scattered Clouds
4:15 PM 41.0 °F 39.0 °F 17.6 °F 39% 30.00 in 10.0 mi ESE 3.5 mph - N/A   Partly Cloudy
4:35 PM 41.0 °F 39.0 °F 17.6 °F 39% 29.99 in 10.0 mi SSE 3.5 mph - N/A   Scattered Clouds
4:55 PM 41.0 °F 38.0 °F 17.6 °F 39% 29.99 in 10.0 mi East 4.6 mph - N/A   Partly Cloudy
5:15 PM 39.2 °F 33.6 °F 19.4 °F 45% 29.99 in 10.0 mi East 8.1 mph - N/A   Clear
5:35 PM 39.2 °F 33.0 °F 17.6 °F 42% 29.99 in 10.0 mi East 9.2 mph - N/A   Clear
5:55 PM 37.4 °F 32.8 °F 17.6 °F 45% 29.99 in 10.0 mi East 5.8 mph - N/A   Clear
6:15 PM 37.4 °F 34.9 °F 17.6 °F 45% 30.00 in 10.0 mi ESE 3.5 mph - N/A   Clear
6:35 PM 35.6 °F 31.7 °F 17.6 °F 48% 30.00 in 10.0 mi East 4.6 mph - N/A   Partly Cloudy
6:55 PM 33.8 °F 30.8 °F 17.6 °F 52% 30.00 in 10.0 mi ESE 3.5 mph - N/A   Partly Cloudy
7:15 PM 32.0 °F - 19.4 °F 60% 30.00 in 10.0 mi Calm Calm - N/A   Clear
7:55 PM 30.2 °F 26.7 °F 19.4 °F 64% 30.00 in 10.0 mi SE 3.5 mph - N/A   Clear
8:15 PM 28.4 °F 23.3 °F 19.4 °F 69% 29.99 in 10.0 mi SE 4.6 mph - N/A   Clear
8:35 PM 28.4 °F 24.6 °F 19.4 °F 69% 30.00 in 10.0 mi SE 3.5 mph - N/A   Clear
8:55 PM 28.4 °F 23.3 °F 19.4 °F 69% 30.00 in 10.0 mi SE 4.6 mph - N/A   Clear
9:15 PM 26.6 °F 21.2 °F 19.4 °F 74% 30.00 in 10.0 mi SE 4.6 mph - N/A   Clear
9:35 PM 26.6 °F 20.0 °F 19.4 °F 74% 30.00 in 10.0 mi SE 5.8 mph - N/A   Clear
9:55 PM 26.6 °F 21.2 °F 19.4 °F 74% 30.01 in 10.0 mi SE 4.6 mph - N/A   Clear
10:15 PM 24.8 °F 19.1 °F 19.4 °F 80% 30.01 in 10.0 mi SSE 4.6 mph - N/A   Partly Cloudy
10:35 PM 24.8 °F 19.1 °F 19.4 °F 80% 30.01 in 10.0 mi SSE 4.6 mph - N/A   Partly Cloudy
10:55 PM 26.6 °F 20.0 °F 19.4 °F 74% 30.01 in 10.0 mi SE 5.8 mph - N/A   Scattered Clouds
11:15 PM 26.6 °F 21.2 °F 19.4 °F 74% 30.01 in 10.0 mi SSE 4.6 mph - N/A   Scattered Clouds
11:35 PM 24.8 °F 16.9 °F 19.4 °F 80% 30.01 in 10.0 mi SE 6.9 mph - N/A   Overcast
11:55 PM 24.8 °F 16.1 °F 19.4 °F 80% 30.01 in 10.0 mi SE 8.1 mph - N/A   Scattered Clouds